Location: Doverdale
(52.2833°N, 2.2000°W)
Time: 10:31:12
(UTC+00:00)

COSMO-SKYMED 1 - Pass Details

Date: 29 October 2020
Orbit: 621 x 623 km, 97.9° (Epoch: 25 November)

Event Time Altitude Azimuth Distance (km) Brightness Sun altitude
Rises 18:36:14 0° 13° (NNE) 2,918 5.9 -17.5°
Reaches altitude 10° 18:38:26 10° 12° (NNE) 2,006 5.1 -17.9°
Maximum altitude 18:42:47 78° 287° (WNW) 643 2.7 -18.5°
Drops below altitude 10° 18:47:07 10° 201° (SSW) 1,989 5.4 -19.2°
Sets 18:49:18 0° 200° (SSW) 2,891 6.2 -19.5°
